| time (UTC) | temp F | wind direction | speed MPH | gust MPH | rain 1hr in | rain 24hr in | rain mn in | humidity % | barometer mb |
| 20260507033521 | 18 | 185 | 6.0 | 8.0 | 0.00 | 0.00 | 0.00 | 87 | 1020.4 |
| 20260507032521 | 18 | 166 | 5.0 | 6.0 | 0.00 | 0.00 | 0.00 | 88 | 1020.3 |
| 20260507031522 | 18 | 172 | 5.0 | 6.0 | 0.00 | 0.00 | 0.00 | 87 | 1020.2 |
| 20260507030522 | 19 | 181 | 4.0 | 5.0 | 0.00 | 0.00 | 0.00 | 87 | 1020.2 |
| 20260507025522 | 19 | 192 | 6.0 | 7.0 | 0.00 | 0.00 | 0.00 | 87 | 1020.1 |
| 20260507024516 | 21 | 214 | 3.0 | 5.0 | 0.00 | 0.00 | 0.00 | 87 | 1019.9 |
| 20260507023522 | 22 | 201 | 4.0 | 7.0 | 0.00 | 0.00 | 0.00 | 86 | 1019.8 |
| 20260507022523 | 22 | 132 | 6.0 | 8.0 | 0.00 | 0.00 | 0.00 | 86 | 1019.8 |
| 20260507021543 | 21 | 135 | 5.0 | 7.0 | 0.00 | 0.00 | 0.00 | 86 | 1019.7 |
| 20260507020526 | 22 | 164 | 3.0 | 4.0 | 0.00 | 0.00 | 0.00 | 85 | 1019.7 |
| 20260507015526 | 23 | 174 | 3.0 | 4.0 | 0.00 | 0.00 | 0.00 | 85 | 1019.6 |
| 20260507014523 | 24 | 177 | 5.0 | 7.0 | 0.00 | 0.00 | 0.00 | 84 | 1019.3 |
| 20260507013526 | 26 | 186 | 4.0 | 5.0 | 0.00 | 0.00 | 0.00 | 83 | 1019.4 |
| 20260507012526 | 27 | 160 | 4.0 | 5.0 | 0.00 | 0.00 | 0.00 | 80 | 1019.3 |
| 20260507011518 | 28 | 160 | 4.0 | 6.0 | 0.00 | 0.00 | 0.00 | 79 | 1019.3 |
| 20260507010527 | 28 | 164 | 3.0 | 4.0 | 0.00 | 0.00 | 0.00 | 80 | 1019.4 |
| 20260507005527 | 28 | 177 | 1.0 | 1.0 | 0.00 | 0.00 | 0.00 | 79 | 1019.2 |
| 20260507004527 | 30 | 214 | 2.0 | 3.0 | 0.00 | 0.00 | 0.00 | 75 | 1019.0 |
| 20260507003527 | 31 | 235 | 2.0 | 3.0 | 0.00 | 0.00 | 0.00 | 69 | 1018.9 |
| 20260507002518 | 30 | 244 | 3.0 | 5.0 | 0.00 | 0.00 | 0.00 | 73 | 1019.0 |
| 20260507001519 | 29 | 261 | 5.0 | 6.0 | 0.00 | 0.00 | 0.00 | 74 | 1018.9 |
| 20260507000519 | 30 | 262 | 4.0 | 6.0 | 0.00 | 0.00 | 0.00 | 76 | 1018.9 |
| 20260506235528 | 31 | 288 | 4.0 | 5.0 | 0.00 | 0.00 | 0.00 | 72 | 1018.9 |
| 20260506234519 | 30 | 297 | 4.0 | 5.0 | 0.00 | 0.00 | 0.00 | 75 | 1018.8 |
| 20260506233520 | 30 | 323 | 4.0 | 6.0 | 0.00 | 0.00 | 0.00 | 76 | 1018.6 |
| 20260506232520 | 31 | 341 | 4.0 | 6.0 | 0.00 | 0.00 | 0.00 | 75 | 1018.5 |
| 20260506231520 | 30 | 343 | 5.0 | 7.0 | 0.00 | 0.00 | 0.00 | 76 | 1018.4 |
| 20260506230520 | 31 | 320 | 4.0 | 6.0 | 0.00 | 0.00 | 0.00 | 75 | 1018.3 |
| 20260506225521 | 32 | 322 | 4.0 | 8.0 | 0.00 | 0.00 | 0.00 | 74 | 1018.1 |
| 20260506224520 | 32 | 331 | 4.0 | 7.0 | 0.00 | 0.02 | 0.00 | 72 | 1018.0 |
| 20260506223521 | 33 | 321 | 3.0 | 5.0 | 0.00 | 0.02 | 0.00 | 71 | 1018.0 |
| 20260506222530 | 34 | 323 | 2.0 | 4.0 | 0.00 | 0.02 | 0.00 | 67 | 1018.0 |
| 20260506221530 | 32 | 249 | 1.0 | 4.0 | 0.00 | 0.02 | 0.00 | 69 | 1018.1 |
| 20260506220530 | 33 | 306 | 2.0 | 3.0 | 0.00 | 0.02 | 0.00 | 71 | 1018.0 |
| 20260506215530 | 31 | 13 | 2.0 | 4.0 | 0.00 | 0.02 | 0.00 | 77 | 1018.1 |
| 20260506214531 | 31 | 349 | 2.0 | 4.0 | 0.00 | 0.03 | 0.00 | 80 | 1018.0 |
| 20260506213531 | 31 | 12 | 2.0 | 3.0 | 0.00 | 0.03 | 0.00 | 79 | 1017.9 |
| 20260506212531 | 30 | 345 | 2.0 | 3.0 | 0.00 | 0.03 | 0.00 | 84 | 1018.0 |
| 20260506211531 | 30 | 352 | 2.0 | 4.0 | 0.00 | 0.03 | 0.00 | 86 | 1018.1 |
| 20260506210551 | 29 | 359 | 3.0 | 4.0 | 0.00 | 0.03 | 0.00 | 88 | 1018.1 |
| 20260506205523 | 28 | 332 | 3.0 | 6.0 | 0.00 | 0.03 | 0.00 | 86 | 1018.3 |
| 20260506204523 | 29 | 329 | 4.0 | 6.0 | 0.00 | 0.03 | 0.00 | 88 | 1018.2 |
| 20260506203603 | 29 | 341 | 5.0 | 8.0 | 0.00 | 0.03 | 0.00 | 88 | 1018.1 |
| 20260506202517 | 30 | 339 | 5.0 | 7.0 | 0.00 | 0.03 | 0.00 | 88 | 1017.9 |
| 20260506201517 | 32 | 355 | 3.0 | 5.0 | 0.00 | 0.03 | 0.00 | 90 | 1017.7 |
| 20260506200538 | 31 | 332 | 4.0 | 6.0 | 0.00 | 0.03 | 0.00 | 89 | 1017.6 |
| 20260506195533 | 31 | 320 | 3.0 | 4.0 | 0.00 | 0.03 | 0.00 | 90 | 1017.5 |
| 20260506194533 | 31 | 278 | 2.0 | 4.0 | 0.00 | 0.03 | 0.00 | 93 | 1017.5 |
| 20260506193518 | 30 | 320 | 4.0 | 7.0 | 0.00 | 0.03 | 0.00 | 93 | 1017.7 |
| 20260506192518 | 29 | 320 | 5.0 | 7.0 | 0.00 | 0.03 | 0.00 | 94 | 1017.7 |
| 20260506191538 | 28 | 341 | 5.0 | 9.0 | 0.00 | 0.03 | 0.00 | 93 | 1017.8 |
| 20260506190518 | 26 | 350 | 9.0 | 12.0 | 0.00 | 0.03 | 0.00 | 93 | 1017.8 |
| 20260506185517 | 26 | 349 | 9.0 | 12.0 | 0.00 | 0.03 | 0.00 | 93 | 1017.8 |
| 20260506184517 | 26 | 346 | 8.0 | 13.0 | 0.00 | 0.03 | 0.00 | 93 | 1017.8 |
| 20260506183519 | 25 | 319 | 5.0 | 8.0 | 0.00 | 0.03 | 0.00 | 93 | 1017.6 |
| 20260506182520 | 25 | 329 | 3.0 | 5.0 | 0.00 | 0.03 | 0.00 | 93 | 1017.6 |
| 20260506181534 | 24 | 319 | 3.0 | 6.0 | 0.00 | 0.03 | 0.00 | 92 | 1017.6 |
| 20260506180538 | 24 | 354 | 4.0 | 8.0 | 0.00 | 0.03 | 0.00 | 92 | 1017.8 |
| 20260506175518 | 24 | 24 | 4.0 | 7.0 | 0.00 | 0.03 | 0.00 | 92 | 1017.8 |
| 20260506174517 | 24 | 44 | 8.0 | 11.0 | 0.00 | 0.03 | 0.00 | 92 | 1017.7 |
| 20260506173558 | 25 | 45 | 11.0 | 15.0 | 0.00 | 0.03 | 0.00 | 91 | 1017.4 |
| 20260506172517 | 27 | 348 | 8.0 | 12.0 | 0.00 | 0.03 | 0.00 | 92 | 1017.4 |
| 20260506171518 | 27 | 308 | 4.0 | 7.0 | 0.00 | 0.03 | 0.00 | 92 | 1017.2 |
| 20260506170519 | 27 | 285 | 3.0 | 4.0 | 0.00 | 0.03 | 0.00 | 92 | 1016.9 |
| 20260506165519 | 27 | 229 | 5.0 | 8.0 | 0.00 | 0.03 | 0.00 | 91 | 1016.3 |
| 20260506164518 | 27 | 217 | 8.0 | 11.0 | 0.00 | 0.03 | 0.00 | 91 | 1015.7 |
| 20260506163518 | 28 | 213 | 10.0 | 13.0 | 0.00 | 0.03 | 0.00 | 91 | 1015.3 |
| 20260506162518 | 28 | 204 | 10.0 | 13.0 | 0.00 | 0.03 | 0.00 | 91 | 1015.3 |
| 20260506161519 | 28 | 198 | 9.0 | 14.0 | 0.00 | 0.03 | 0.00 | 92 | 1015.2 |
| 20260506160518 | 28 | 205 | 9.0 | 11.0 | 0.00 | 0.03 | 0.00 | 92 | 1015.3 |
| 20260506155519 | 27 | 204 | 8.0 | 13.0 | 0.00 | 0.03 | 0.00 | 92 | 1015.3 |
| 20260506154539 | 27 | 196 | 9.0 | 12.0 | 0.00 | 0.03 | 0.00 | 92 | 1015.3 |
| 20260506153519 | 28 | 202 | 9.0 | 11.0 | 0.00 | 0.03 | 0.00 | 92 | 1015.2 |
| 20260506152519 | 27 | 195 | 8.0 | 11.0 | 0.00 | 0.03 | 0.00 | 92 | 1015.2 |
| 20260506151537 | 27 | 198 | 9.0 | 15.0 | 0.00 | 0.03 | 0.00 | 92 | 1015.1 |
| 20260506150521 | 26 | 196 | 8.0 | 9.0 | 0.00 | 0.03 | 0.00 | 92 | 1015.2 |
| 20260506145522 | 26 | 203 | 8.0 | 10.0 | 0.00 | 0.03 | 0.00 | 92 | 1015.3 |
| 20260506144521 | 26 | 196 | 7.0 | 9.0 | 0.00 | 0.03 | 0.00 | 92 | 1015.5 |
| 20260506143522 | 26 | 192 | 5.0 | 6.0 | 0.00 | 0.03 | 0.00 | 91 | 1015.7 |
| 20260506142522 | 25 | 144 | 5.0 | 5.0 | 0.00 | 0.03 | 0.00 | 91 | 1015.6 |
| 20260506094622 | 28 | 207 | 5.0 | 5.0 | 0.00 | 0.03 | 0.00 | 92 | 1013.5 |
| 20260506093603 | 28 | 207 | 6.0 | 7.0 | 0.00 | 0.03 | 0.00 | 92 | 1013.5 |
| 20260506092602 | 28 | 204 | 5.0 | 6.0 | 0.00 | 0.03 | 0.00 | 92 | 1013.5 |
| 20260506091603 | 28 | 215 | 4.0 | 5.0 | 0.00 | 0.03 | 0.00 | 92 | 1013.4 |
| 20260506090603 | 28 | 198 | 3.0 | 3.0 | 0.00 | 0.03 | 0.00 | 92 | 1013.5 |
| 20260506085604 | 28 | 188 | 2.0 | 2.0 | 0.00 | 0.03 | 0.00 | 92 | 1013.5 |
| 20260506084604 | 28 | 187 | 1.0 | 1.0 | 0.00 | 0.03 | 0.00 | 92 | 1013.5 |
| 20260506083624 | 28 | 206 | 2.0 | 3.0 | 0.00 | 0.03 | 0.00 | 92 | 1013.5 |
| 20260506082604 | 29 | 211 | 2.0 | 3.0 | 0.00 | 0.03 | 0.00 | 92 | 1013.4 |
| 20260506081604 | 29 | 221 | 3.0 | 4.0 | 0.00 | 0.03 | 0.00 | 92 | 1013.3 |
| 20260506080604 | 30 | 218 | 3.0 | 4.0 | 0.00 | 0.03 | 0.00 | 92 | 1013.6 |
| 20260506073522 | 30 | 255 | 2.0 | 3.0 | 0.00 | 0.03 | 0.00 | 92 | 1013.7 |
| 20260506072542 | 30 | 284 | 2.0 | 4.0 | 0.00 | 0.03 | 0.00 | 92 | 1013.9 |
| 20260506071522 | 30 | 283 | 2.0 | 3.0 | 0.00 | 0.03 | 0.00 | 92 | 1013.8 |
| 20260506070523 | 30 | 298 | 2.0 | 3.0 | 0.00 | 0.03 | 0.00 | 92 | 1013.9 |
| 20260506061520 | 30 | 347 | 4.0 | 6.0 | 0.00 | 0.03 | 0.00 | 92 | 1013.8 |
| 20260506060520 | 30 | 346 | 5.0 | 8.0 | 0.00 | 0.03 | 0.00 | 92 | 1013.6 |
| 20260506050521 | 31 | 348 | 5.0 | 8.0 | 0.00 | 0.03 | 0.03 | 92 | 1013.4 |
| 20260506044545 | 31 | 353 | 3.0 | 5.0 | 0.00 | 0.03 | 0.03 | 92 | 1013.3 |
| 20260506043522 | 32 | 6 | 4.0 | 8.0 | 0.00 | 0.03 | 0.03 | 91 | 1013.3 |
| 20260506042522 | 32 | 227 | 4.0 | 7.0 | 0.00 | 0.03 | 0.03 | 91 | 1013.2 |
| 20260506041519 | 32 | 203 | 7.0 | 11.0 | 0.00 | 0.03 | 0.03 | 91 | 1012.8 |
| 20260506040523 | 32 | 214 | 7.0 | 10.0 | 0.00 | 0.03 | 0.03 | 92 | 1012.9 |
| 20260506035518 | 32 | 201 | 9.0 | 12.0 | 0.00 | 0.03 | 0.03 | 91 | 1012.7 |
| 20260506034517 | 33 | 191 | 10.0 | 13.0 | 0.00 | 0.03 | 0.03 | 91 | 1012.7 |